www.pogodaiklimat.ru

Погода и климат >> Архив погоды >> Россия >> Татарстан >> Вязовые


ПОГОДА в Вязовых

  • Прогноз погоды в Вязовых
  • Монитор погоды в Вязовых

АРХИВ ПОГОДЫ в Вязовых

Время (UTC), дата Ветер
(напр.,м/с)
 
Видим.   Явления Облачность Т
(С)
Тd
(С)
f
(%)
Тe
(С)
Тes
(С)
Комфортность P
(гПа)
Po
(гПа)
Тmin
(С)
Tmax
(С)
R
(мм)
R24
(мм)
S
(см)
18 17.06 З 5
{12}
20 км 9/0
[Ac trans Ci fib]
+19.0 +9.4 54 +19 +19 1009.2 994.9
21 17.06 З 5 10 км 8/0
[Ac trans Ci fib]
+16.8 +9.8 63 +16 +16 1009.9 995.4
00 18.06 В 1 10 км 5/0
[Ac trans]
+14.9 +10.6 75 +15 +15 1010.4 995.9
03 18.06 В 1 20 км 9/3 600 м
[Cu hum Ac trans Ci fib]
+15.0 +11.0 77 +16 +17 1011.3 996.7 +14.0
06 18.06 В 2 20 км 9/3 1000 м
[Cu hum Ac trans Ci fib]
+18.6 +11.3 62 +20 +24 1011.4 997.0
09 18.06 В 2 20 км 9/5 600 м
[Cu med, cong Ci fib]
+22.0 +11.1 50 +24 +31 комфорт 1010.6 996.4
12 18.06 Ю 2 20 км 8/4 1000 м
[Cu med, cong Ac trans Ci fib]
+25.3 +11.3 42 +27 +31 жарко 1009.2 995.1
15 18.06 Ю 4 20 км 9/6 600 м
[Cu med, cong Ac trans Ci fib]
+24.4 +11.5 44 +26 +26 жарко 1008.2 994.2 +25.7
18 18.06 Ю 4 20 км 6/3 1000 м
[Cu hum Ac trans]
+20.2 +11.7 58 +22 +22 комфорт 1008.4 994.1
21 18.06 ЮЗ 3 10 км 8/6 1000 м
[Cu hum Ac trans]
+18.7 +12.6 68 +20 +20 1008.3 994.0
00 19.06 СЗ 6 20 км 10/3 1000 м
[Cu hum Ac trans Ci fib]
+18.0 +12.4 70 +17 +17 1008.5 994.1
03 19.06 СЗ 3 20 км 10/4 1000 м
[Cu med, cong Ac trans Ci fib]
+18.4 +12.3 68 +19 +20 1009.1 994.7 +16.5
06 19.06 СЗ 4 20 км 9/0
[Ac trans Ci fib]
+21.3 +12.9 59 +24 +29 комфорт 1009.4 995.2
09 19.06 С 3 20 км 9/5 1000 м
[Cu med, cong Ci fib]
+25.5 +10.5 39 +26 +32 жарко 1009.4 995.4
12 19.06 С 1 20 км {гроза, ливн. осадки} 9/5 600 м
[Cu med, cong Ac trans Ci fib]
+24.6 +11.4 44 +26 +30 жарко 1009.9 995.8
15 19.06 штиль 0 20 км 8/3 1000 м
[Cu hum Ac trans]
+26.2 +9.5 35 +27 +28 жарко 1010.2 996.2 +26.8 0.8
18 19.06 СЗ 4 20 км 6/0
[Ac trans Ci fib]
+20.9 +11.8 56 +23 +23 комфорт 1011.4 997.1
21 19.06 СЗ 4 10 км 3/0
[Ac trans]
+18.8 +13.5 71 +20 +20 1012.2 997.8
00 20.06 СЗ 3 10 км 8/1 1000 м
[Cu hum Ci fib]
+17.0 +13.9 82 +17 +17 1012.9 998.4
03 20.06 СЗ 4 10 км 8/0
[Ci fib]
+19.6 +13.5 68 +21 +23 комфорт 1013.8 999.4 +17.0
06 20.06 СЗ 4 10 км 4/0
[Ci fib]
+24.6 +12.6 47 +26 +34 жарко 1013.9 999.8
09 20.06 З 5 20 км 9/4 1000 м
[Cu med, cong Ci fib]
+28.1 +9.2 31 +28 +32 жарко 1013.3 999.4
12 20.06 З 7-10
{11}
20 км 5/4 1000 м
[Cu med, cong Ci fib]
+27.9 +8.4 29 +28 +29 жарко 1012.9 998.9
15 20.06 СЗ 6
{10}
20 км 5/3 1000 м
[Cu med, cong Ci fib]
+26.9 +7.6 29 +27 +27 жарко 1012.8 998.8 +28.4
18 20.06 СЗ 4 20 км 3/0
[Ac trans Ci fib]
+23.0 +9.5 42 +25 +25 комфорт 1014.2 1000.0
21 20.06 СЗ 4 10 км 3/0
[Ac trans]
+21.4 +8.6 44 +23 +23 комфорт 1015.2 1000.9
00 21.06 СЗ 3 20 км 3/0
[Ac trans Ci fib]
+17.6 +12.9 74 +18 +18 1016.4 1001.9
03 21.06 СЗ 3 20 км 4/1 1000 м
[Cu hum Ci fib]
+19.2 +12.3 64 +21 +23 комфорт 1017.6 1003.2 +17.1
06 21.06 СЗ 2 20 км 4/0
[Ci fib]
+24.0 +12.2 48 +26 +36 жарко 1018.0 1003.8
09 21.06 З 4 20 км 8/8 1000 м
[Cu hum]
+27.1 +10.5 35 +28 +30 жарко 1017.8 1003.7
12 21.06 СЗ 3 20 км 9/6 1000 м
[Cu hum Ci fib]
+28.8 +8.0 27 +28 +31 жарко 1017.3 1003.3
15 21.06 В 2 20 км 8/3 1000 м
[Cu hum Ci fib]
+25.6 +13.1 46 +28 +29 жарко 1017.3 1003.2 +29.1
18 21.06 ЮВ 2 20 км 8/0
[Ac trans Ci fib]
+22.0 +14.4 62 +25 +25 комфорт 1017.7 1003.4
21 21.06 Ю 3 10 км 6/0
[Ci fib]
+20.1 +15.2 73 +23 +23 комфорт 1018.1 1003.7
00 22.06 ЮЗ 3 20 км 4/0
[Ci fib]
+18.1 +12.1 68 +18 +18 1018.4 1003.9
03 22.06 Ю 3 10 км в посл. час ливневой дождь 9/8 600 м
[Cb cap Ac trans Ci fib]
+17.9 +13.6 76 +18 +18 1018.5 1004.0 +17.1
06 22.06 ЮЗ 3 20 км {ливн. осадки} 9/0
[Ci fib]
+25.6 +13.9 48 +28 +36 жарко 1017.4 1003.3
09 22.06 З 6-10
{10}
20 км 10/4
[Cu hum Ci fib]
+30.1 +9.3 27 +30 +33 жарко 1016.5 1002.5
12 22.06 З 6
{10}
20 км 8/4 1000 м
[Cu med, cong Ci fib]
+30.8 +8.6 25 +30 +32 жарко 1015.5 1001.6
15 22.06 З 5 20 км 4/0
[Ac trans Ci fib]
+29.1 +10.3 31 +29 +30 жарко 1014.3 1000.4 +31.5
18 22.06 ЮЗ 5 10 км 6/0
[Ac trans Ci fib]
+25.6 +11.4 41 +27 +27 жарко 1014.2 1000.1
21 22.06 ЮЗ 4 10 км 10/0
[Ac trans Ci fib]
+23.4 +12.0 49 +26 +26 жарко 1013.9 999.7
00 23.06 З 4 10 км 4/0
[Ac trans]
+22.6 +12.5 53 +25 +25 комфорт 1014.2 999.9
03 23.06 ЮЗ 2 10 км 6/0
[Ac trans Ci fib]
+22.6 +15.1 63 +26 +29 жарко 1014.6 1000.4 +21.0
06 23.06 СЗ 3 10 км 6/0
[Ci fib]
+26.8 +16.3 53 +30 +39 душно 1014.9 1000.9
09 23.06 СЗ 6 20 км 5/4 1000 м
[Cu med, cong Ci fib]
+29.4 +14.5 40 +31 +35 жарко 1014.7 1000.8
12 23.06 СЗ 4
{10}
20 км 8/5 600 м
[Cu med, cong Ac trans Ci fib]
+28.7 +15.8 46 +32 +34 душно 1014.7 1000.8
15 23.06 СЗ 5
{10}
20 км 3/3 1000 м
[Cu med, cong]
+27.8 +14.1 43 +30 +31 жарко 1014.4 1000.4 +29.6
18 23.06 СЗ 3 20 км 4/3 1000 м
[Cu med, cong Ac trans]
+24.8 +15.0 54 +28 +28 жарко 1015.3 1001.2
21 23.06 СЗ 2 10 км 8/3 600 м
[Cu med, cong Ac trans]
+22.8 +15.4 63 +27 +27 душно 1015.9 1001.7
00 24.06 СЗ 4 10 км 8/6 600 м
[Cu med, cong Ac trans]
+20.3 +16.5 79 +23 +23 комфорт 1016.8 1002.4
03 24.06 СЗ 2 10 км 5/0
[Ac trans Ci fib]
+20.4 +14.0 67 +23 +26 комфорт 1016.9 1002.5 +19.7
06 24.06 СЗ 2 10 км 8/0
[Ac trans Ci fib]
+25.0 +12.0 44 +27 +35 жарко 1017.1 1002.9
09 24.06 С 4 10 км в посл. час ливневой дождь 10/4 600 м
[Cb cap Ac trans]
+21.1 +10.8 52 +23 +25 комфорт 1017.7 1003.4
12 24.06 С 3 20 км {ливн. осадки} 8/3 1000 м
[Cu hum Ac trans Ci fib]
+21.3 +8.2 43 +22 +26 комфорт 1017.1 1002.8
15 24.06 СЗ 5 20 км 6/3 1000 м
[Cu hum Ac trans Ci fib]
+23.1 +7.2 36 +24 +25 комфорт 1016.4 1002.1 +25.1

 

Местоположение метеостанции Вязовые (Татарстан, Россия): широта 55.82 долгота 48.52 высота над уровнем моря 123 м.

В архиве по умолчанию представлена погода в Вязовых за последнюю неделю. Архивные данные за месяц целиком и за предыдущие месяцы, начиная с января 2011 года, Вы можете получить, выбрав интересующий диапазон дат из раскрывающегося списка и нажав кнопку "Ввод!".


*Определитесь, кто Вы:
робот инопланетянин человек

Внимание! Время в таблицах - всемирное. Для получения местного времени необходимо прибавить поправку, которая равна 3 ч.

Смотрите также архив погоды в соседних городах и на ближайших метеорологических станциях:

Погода в Казани (Татарстан, Россия) (44 км)
Погода в Больших Кайбицах (Татарстан, Россия) (51 км)
Погода в Канаше (Чувашия, Россия) (74 км)
Погода в Морках (Марий-Эл, Россия) (75 км)
Погода в Лаишево (Татарстан, Россия) (77 км)
Погода в Чебоксарах (Чувашия, Россия) (80 км)
Погода в Камском Устье (Татарстан, Россия) (82 км)
Погода в Арске (Татарстан, Россия) (89 км)
Погода в Тетюшах (Татарстан, Россия) (98 км)
Погода в Йошкар-Оле (Марий-Эл, Россия) (101 км)

Пояснения к столбцам:

Ветер - указаны скорость ветра в м/с - средняя за 10 мин, порывы в срок и между сроками (в фигурных скобках) и направление, откуда дует ветер: С - северный, СВ - северо-восточный, В - восточный, ЮВ - юго-восточный, Ю - южный, ЮЗ - юго-западный, З - западный, СЗ - северо-западный.
Видимость - горизонтальная дальность видимости в метрах или километрах. При видимости от 1 до 10 км при отсутствии осадков обычно наблюдается дымка, при ухудшении видимости до 1 км и менее - туман. В сухую погоду видимость может ухудшаться дымом, пылью или мглою.
Явления - указаны атмосферные явления, наблюдавшиеся в срок или в последний час перед сроком; фигурными скобками обозначены явления, наблюдавшиеся между сроками (за 1-3 часа до срока); квадратными скобками обозначены град или гололедные отложения с указанием их диаметра в мм.
Облачность - указаны через наклонную черту общая и нижняя облачность в баллах и высота нижней границы облаков в метрах; квадратными скобками обозначены формы облаков: Ci - перистые, Cs - перисто-слоистые, Cc - перисто-кучевые, Ac - высококучевые, As - высокослоистые, Sc - слоисто-кучевые, Ns - слоисто-дождевые, Cu - кучевые, Cb - кучево-дождевые. Подробнее классификацию облаков см. в Атласе облаков (PDF).
T - Температура воздуха - температура, измеренная на высоте 2 м над землей.
Td - Температура точки росы - температура, при понижении до которой содержащийся в воздухе водяной пар достигнет насыщения.
f - Относительная влажность воздуха - влажноcть воздуха, измеренная на высоте 2 м над землей.
Te - Эффективная температура - температура, которую ощущает одетый по сезону человек в тени. Характеристика душности погоды. При расчете учитывается влияние влажности воздуха и скорости ветра на теплоощущения человека.
Tes - Эффективная температура на солнце - температура, которую ощущает человек, с поправкой на солнечный нагрев. Характеристика знойности погоды. Зависит от высоты солнца над горизонтом, облачности и скорости ветра. Ночью, в пасмурную погоду, а также при ветре 12 м/с и более поправка равна нулю.
P - Атмосферное давление - приведенное к уровню моря атмосферное давление.
Po - Атмосферное давление - измеренное на уровне метеостанции атмосферное давление.
Tmin - Минимальная температура - минимум температуры воздуха на высоте 2 м над землей.
Tmax - Максимальная температура - максимум температуры воздуха на высоте 2 м над землей.
R - Количество осадков - Количество выпавших осадков за период времени, мм. При наведении курсора мыши на число - период времени, за который выпало указанное количество осадков.
R24 - Количество осадков - Количество выпавших осадков за 24 часа, мм.
S - Снежный покров - Высота снежного покрова, см. При наведении курсора мыши на число - состояние снежного покрова и степень покрытия местности в баллах.